Location: Newark
(7.0858°N, 171.3717°E)
Time: 16:34:22
(UTC+00:00)

Altair - Pass Details

Date: 28 November 2020
Orbit: 1501 x 1682 km, 47.2° (Epoch: 20 January)

Event Time Altitude Azimuth Distance (km) Brightness Sun altitude
Exits shadow 15:19:38 15° 34° (NE) 3,337 9.3 -45.0°
Maximum altitude 15:20:30 15° 40° (NE) 3,329 9.3 -44.8°
Drops below altitude 10° 15:25:15 10° 72° (ENE) 3,729 9.9 -43.7°
Sets 15:30:20 0° 94° (E) 4,753 10.8 -42.5°
